timestamp,wind_dir_avg,wind_spd_avg,wind_spd_max_dir,wind_spd_gust,battery_voltage,lat,long
2022-03-10 00:04:01+00:00,279.0,7.1,284.0,8.93,12.41,47.59359,-54.27349
2022-03-10 00:14:01+00:00,286.0,9.62,279.0,11.38,12.41,47.59359,-54.27349
2022-03-10 00:24:01+00:00,285.0,8.89,283.0,10.27,12.41,47.59359,-54.27349
2022-03-10 00:34:01+00:00,296.0,7.21,296.0,9.14,12.41,47.59359,-54.27349
2022-03-10 00:44:01+00:00,303.0,6.14,309.0,6.86,12.41,47.59359,-54.27349
2022-03-10 00:54:01+00:00,298.0,6.7,295.0,7.69,12.41,47.59359,-54.27349
2022-03-10 01:04:01+00:00,319.0,5.38,322.0,6.19,12.41,47.59359,-54.27349
2022-03-10 01:14:01+00:00,306.0,4.78,306.0,5.66,12.41,47.59359,-54.27349
2022-03-10 01:24:01+00:00,299.0,4.4,296.0,5.44,12.41,47.59359,-54.27349
2022-03-10 01:34:01+00:00,269.0,5.15,268.0,5.77,12.41,47.59359,-54.27349
2022-03-10 01:44:01+00:00,277.0,4.94,277.0,5.57,12.41,47.59359,-54.27349
2022-03-10 01:54:01+00:00,288.0,5.88,293.0,6.43,12.41,47.59359,-54.27349
2022-03-10 02:04:01+00:00,278.0,5.67,273.0,7.78,12.41,47.59359,-54.27349
2022-03-10 02:14:00+00:00,293.0,5.48,288.0,6.73,12.33,47.59359,-54.27349
2022-03-10 02:24:00+00:00,287.0,7.68,294.0,8.87,12.33,47.59359,-54.27349
2022-03-10 02:34:00+00:00,283.0,3.74,271.0,7.55,12.33,47.59359,-54.27349
2022-03-10 02:44:00+00:00,290.0,4.59,291.0,5.76,12.33,47.59359,-54.27349
2022-03-10 02:54:00+00:00,299.0,5.29,300.0,5.91,12.33,47.59359,-54.27349
2022-03-10 03:04:00+00:00,306.0,5.12,305.0,5.97,12.33,47.59359,-54.27349
2022-03-10 03:14:01+00:00,296.0,4.44,298.0,5.54,12.33,47.59359,-54.27349
2022-03-10 03:24:01+00:00,299.0,4.5,289.0,6.83,12.33,47.59359,-54.27349
2022-03-10 03:34:01+00:00,288.0,6.3,288.0,6.86,12.33,47.59359,-54.27349
2022-03-10 03:44:01+00:00,277.0,5.71,283.0,6.8,12.33,47.59359,-54.27349
2022-03-10 03:54:01+00:00,284.0,6.16,288.0,6.76,12.33,47.59359,-54.27349
2022-03-10 04:04:01+00:00,286.0,4.72,278.0,6.7,12.33,47.59359,-54.27349
2022-03-10 04:14:01+00:00,290.0,5.74,289.0,7.28,12.25,47.59359,-54.27349
2022-03-10 04:24:01+00:00,284.0,6.14,289.0,6.89,12.25,47.59359,-54.27349
2022-03-10 04:34:01+00:00,291.0,5.81,289.0,7.22,12.25,47.59359,-54.27349
2022-03-10 04:44:01+00:00,281.0,6.06,279.0,6.87,12.25,47.59359,-54.27349
2022-03-10 04:54:01+00:00,291.0,5.83,297.0,7.03,12.25,47.59359,-54.27349
2022-03-10 05:04:01+00:00,298.0,6.64,300.0,7.6,12.25,47.59359,-54.27349
2022-03-10 05:14:01+00:00,291.0,5.61,291.0,6.08,12.17,47.59359,-54.27349
2022-03-10 05:24:01+00:00,280.0,5.97,281.0,7.11,12.17,47.59359,-54.27349
2022-03-10 05:34:01+00:00,297.0,6.22,292.0,7.0,12.17,47.59359,-54.27349
2022-03-10 05:44:01+00:00,353.0,1.13,352.0,1.34,12.17,47.59359,-54.27349
2022-03-10 05:54:01+00:00,6.0,1.68,5.0,2.18,12.17,47.59359,-54.27349
2022-03-10 06:04:01+00:00,16.0,1.38,50.0,2.27,12.17,47.59359,-54.27349
2022-03-10 06:14:00+00:00,358.0,2.28,354.0,3.01,12.17,47.59359,-54.27349
2022-03-10 06:24:00+00:00,339.0,3.01,308.0,4.72,12.17,47.59359,-54.27349
2022-03-10 06:34:00+00:00,357.0,1.81,357.0,2.37,12.17,47.59359,-54.27349
2022-03-10 06:44:00+00:00,5.0,1.68,7.0,2.48,12.17,47.59359,-54.27349
2022-03-10 06:54:00+00:00,346.0,1.44,299.0,3.9,12.17,47.59359,-54.27349
2022-03-10 07:04:00+00:00,272.0,2.29,278.0,5.06,12.17,47.59359,-54.27349
2022-03-10 07:14:00+00:00,17.0,1.34,16.0,1.74,12.17,47.59359,-54.27349
2022-03-10 07:24:00+00:00,22.0,1.01,30.0,1.19,12.17,47.59359,-54.27349
2022-03-10 07:34:00+00:00,31.0,1.03,71.0,3.35,12.17,47.59359,-54.27349
2022-03-10 07:44:00+00:00,73.0,1.56,83.0,4.11,12.17,47.59359,-54.27349
2022-03-10 07:54:00+00:00,71.0,3.63,77.0,5.15,12.17,47.59359,-54.27349
2022-03-10 08:04:00+00:00,35.0,3.05,65.0,5.57,12.17,47.59359,-54.27349
2022-03-10 08:14:00+00:00,33.0,3.66,57.0,6.27,12.17,47.59359,-54.27349
2022-03-10 08:24:00+00:00,64.0,3.94,70.0,6.33,12.17,47.59359,-54.27349
2022-03-10 08:34:00+00:00,70.0,4.89,72.0,6.0,12.17,47.59359,-54.27349
2022-03-10 08:44:00+00:00,79.0,6.27,81.0,6.92,12.17,47.59359,-54.27349
2022-03-10 08:54:00+00:00,85.0,5.44,92.0,6.03,12.17,47.59359,-54.27349
2022-03-10 09:04:00+00:00,72.0,6.16,69.0,6.87,12.17,47.59359,-54.27349
2022-03-10 09:14:00+00:00,68.0,5.41,66.0,6.25,12.09,47.59359,-54.27349
2022-03-10 09:24:00+00:00,80.0,5.48,81.0,6.04,12.09,47.59359,-54.27349
2022-03-10 09:34:00+00:00,90.0,0.92,89.0,3.37,12.09,47.59359,-54.27349
2022-03-10 09:44:00+00:00,121.0,0.45,153.0,0.81,12.09,47.59359,-54.27349
2022-03-10 09:54:00+00:00,194.0,1.04,196.0,1.94,12.09,47.59359,-54.27349
2022-03-10 10:04:00+00:00,227.0,3.66,230.0,4.13,12.09,47.59359,-54.27349
2022-03-10 10:14:00+00:00,235.0,4.34,238.0,5.28,12.17,47.59359,-54.27349
2022-03-10 10:24:00+00:00,235.0,4.76,244.0,5.46,12.17,47.59359,-54.27349
2022-03-10 10:34:00+00:00,240.0,4.18,242.0,4.98,12.17,47.59359,-54.27349
2022-03-10 10:44:00+00:00,241.0,4.82,243.0,5.48,12.17,47.59359,-54.27349
2022-03-10 10:54:00+00:00,255.0,4.58,245.0,5.22,12.17,47.59359,-54.27349
2022-03-10 11:04:00+00:00,247.0,4.48,245.0,5.2,12.17,47.59359,-54.27349
2022-03-10 11:14:00+00:00,263.0,4.33,255.0,4.81,12.57,47.59359,-54.27349
2022-03-10 11:24:00+00:00,242.0,3.91,243.0,4.4,12.57,47.59359,-54.27349
2022-03-10 11:34:00+00:00,236.0,4.3,240.0,5.29,12.57,47.59359,-54.27349
2022-03-10 11:44:00+00:00,247.0,3.88,249.0,4.45,12.57,47.59359,-54.27349
2022-03-10 11:54:00+00:00,244.0,5.1,250.0,5.67,12.57,47.59359,-54.27349
2022-03-10 12:04:00+00:00,241.0,4.97,241.0,5.55,12.57,47.59359,-54.27349
2022-03-10 13:14:01+00:00,226.0,4.07,228.0,4.68,13.6,47.59359,-54.27349
2022-03-10 13:24:01+00:00,234.0,3.38,235.0,3.93,13.6,47.59359,-54.27349
2022-03-10 13:34:01+00:00,226.0,4.18,221.0,5.12,13.6,47.59359,-54.27349
2022-03-10 13:44:01+00:00,231.0,4.24,234.0,5.01,13.6,47.59359,-54.27349
2022-03-10 13:54:01+00:00,233.0,4.53,237.0,5.03,13.6,47.59359,-54.27349
2022-03-10 14:04:01+00:00,225.0,4.1,229.0,4.7,13.6,47.59359,-54.27349
2022-03-10 14:14:00+00:00,221.0,3.86,223.0,4.35,13.68,47.59359,-54.27349
2022-03-10 14:24:00+00:00,228.0,4.24,229.0,4.81,13.68,47.59359,-54.27349
2022-03-10 14:34:00+00:00,236.0,5.97,238.0,7.38,13.68,47.59359,-54.27349
2022-03-10 14:44:00+00:00,238.0,5.64,241.0,7.58,13.68,47.59359,-54.27349
2022-03-10 14:54:00+00:00,236.0,6.49,244.0,8.43,13.68,47.59359,-54.27349
2022-03-10 15:04:00+00:00,248.0,7.64,257.0,8.61,13.68,47.59359,-54.27349
2022-03-10 15:14:00+00:00,238.0,8.48,246.0,9.87,13.68,47.59359,-54.27349
2022-03-10 15:24:00+00:00,233.0,8.58,243.0,9.61,13.68,47.59359,-54.27349
2022-03-10 15:34:00+00:00,229.0,7.47,231.0,8.72,13.68,47.59359,-54.27349
2022-03-10 15:44:00+00:00,233.0,7.47,240.0,9.26,13.68,47.59359,-54.27349
2022-03-10 15:54:00+00:00,226.0,7.24,229.0,8.53,13.68,47.59359,-54.27349
2022-03-10 16:04:00+00:00,226.0,7.66,222.0,10.56,13.68,47.59359,-54.27349
2022-03-10 16:14:00+00:00,234.0,7.27,238.0,10.22,13.68,47.59359,-54.27349
2022-03-10 16:24:00+00:00,241.0,10.25,244.0,11.22,13.68,47.59359,-54.27349
2022-03-10 16:34:00+00:00,243.0,10.43,241.0,11.66,13.68,47.59359,-54.27349
2022-03-10 16:44:00+00:00,242.0,10.32,243.0,11.16,13.68,47.59359,-54.27349
2022-03-10 16:54:00+00:00,242.0,10.57,240.0,11.77,13.68,47.59359,-54.27349
2022-03-10 17:04:00+00:00,239.0,9.55,234.0,11.4,13.68,47.59359,-54.27349
2022-03-10 17:14:01+00:00,212.0,9.0,230.0,11.4,13.76,47.59359,-54.27349
2022-03-10 17:24:01+00:00,225.0,8.59,233.0,11.05,13.76,47.59359,-54.27349
2022-03-10 17:34:01+00:00,237.0,11.35,233.0,12.6,13.76,47.59359,-54.27349
2022-03-10 17:44:01+00:00,233.0,11.2,226.0,12.59,13.76,47.59359,-54.27349
2022-03-10 17:54:01+00:00,225.0,10.62,227.0,13.31,13.76,47.59359,-54.27349
2022-03-10 18:04:01+00:00,234.0,11.12,231.0,12.84,13.76,47.59359,-54.27349
2022-03-10 18:14:00+00:00,229.0,11.38,229.0,12.43,13.68,47.59359,-54.27349
2022-03-10 18:24:00+00:00,232.0,10.68,235.0,12.7,13.68,47.59359,-54.27349
2022-03-10 18:34:00+00:00,237.0,10.7,239.0,12.14,13.68,47.59359,-54.27349
2022-03-10 18:44:00+00:00,238.0,9.32,244.0,11.38,13.68,47.59359,-54.27349
2022-03-10 18:54:00+00:00,250.0,9.8,250.0,11.42,13.68,47.59359,-54.27349
2022-03-10 19:04:00+00:00,268.0,9.07,266.0,11.68,13.68,47.59359,-54.27349
2022-03-10 19:14:01+00:00,263.0,14.49,264.0,17.56,14.24,47.59359,-54.27349
2022-03-10 19:24:01+00:00,259.0,10.83,258.0,12.28,14.24,47.59359,-54.27349
2022-03-10 19:34:01+00:00,276.0,8.69,279.0,11.4,14.24,47.59359,-54.27349
2022-03-10 19:44:01+00:00,280.0,9.39,277.0,12.81,14.24,47.59359,-54.27349
2022-03-10 19:54:01+00:00,258.0,10.29,261.0,12.91,14.24,47.59359,-54.27349
2022-03-10 20:04:01+00:00,257.0,7.91,261.0,11.56,14.24,47.59359,-54.27349
2022-03-10 20:14:01+00:00,268.0,10.38,269.0,12.01,13.76,47.59359,-54.27349
2022-03-10 20:24:01+00:00,267.0,9.93,264.0,12.28,13.76,47.59359,-54.27349
2022-03-10 20:34:01+00:00,261.0,10.61,267.0,17.61,13.76,47.59359,-54.27349
2022-03-10 20:44:01+00:00,272.0,10.9,276.0,12.83,13.76,47.59359,-54.27349
2022-03-10 20:54:01+00:00,262.0,8.79,262.0,12.59,13.76,47.59359,-54.27349
2022-03-10 21:04:01+00:00,271.0,8.41,278.0,12.1,13.76,47.59359,-54.27349
2022-03-10 21:14:01+00:00,258.0,7.1,262.0,9.36,13.44,47.59359,-54.27349
2022-03-10 21:24:01+00:00,258.0,11.44,263.0,14.22,13.44,47.59359,-54.27349
2022-03-10 21:34:01+00:00,265.0,9.28,275.0,12.36,13.44,47.59359,-54.27349
2022-03-10 21:44:01+00:00,262.0,9.4,264.0,11.86,13.44,47.59359,-54.27349
2022-03-10 21:54:01+00:00,260.0,8.26,273.0,11.34,13.44,47.59359,-54.27349
2022-03-10 22:04:01+00:00,261.0,10.92,264.0,15.1,13.44,47.59359,-54.27349
2022-03-10 22:14:01+00:00,260.0,9.2,253.0,11.8,12.73,47.59359,-54.27349
2022-03-10 22:24:01+00:00,263.0,8.91,266.0,12.33,12.73,47.59359,-54.27349
2022-03-10 22:34:01+00:00,256.0,13.28,261.0,17.09,12.73,47.59359,-54.27349
2022-03-10 22:44:01+00:00,263.0,9.95,263.0,11.59,12.73,47.59359,-54.27349
2022-03-10 22:54:01+00:00,261.0,8.85,257.0,10.86,12.73,47.59359,-54.27349
2022-03-10 23:04:01+00:00,260.0,9.09,262.0,10.79,12.73,47.59359,-54.27349
2022-03-10 23:14:01+00:00,256.0,9.24,260.0,10.98,12.49,47.59359,-54.27349
2022-03-10 23:24:01+00:00,253.0,9.09,260.0,10.73,12.49,47.59359,-54.27349
2022-03-10 23:34:01+00:00,257.0,9.4,260.0,10.56,12.49,47.59359,-54.27349
2022-03-10 23:44:01+00:00,253.0,8.67,259.0,10.48,12.49,47.59359,-54.27349
2022-03-10 23:54:01+00:00,248.0,9.05,246.0,10.51,12.49,47.59359,-54.27349
